EW8555 Weather Reports


time (UTC)temp
C
wind
direction
speed
KPH
gust
KPH
rain 1hr
cm
rain 24hr
cm
rain mn
cm
humidity
%
barometer
mb
20260905230024 13 223 1.6 14.5 0.00 0.25 0.00 89 1020.0
20260905224523 13 286 0.0 4.8 0.00 0.25 0.00 88 1019.9
20260905223020 13 294 0.0 14.5 0.00 0.25 0.00 87 1019.7
20260905221518 13 287 6.4 12.9 0.00 0.25 0.00 86 1019.8
20260905220015 13 302 3.2 16.1 0.00 0.25 0.00 86 1019.7
20260905214513 13 296 8.0 24.1 0.00 0.25 0.25 87 1019.5
20260905213010 13 294 3.2 19.3 0.00 0.25 0.25 89 1019.4
20260905211509 13 259 1.6 14.5 0.00 0.25 0.25 89 1019.3
20260905210008 13 270 3.2 16.1 0.00 0.25 0.25 88 1019.3
20260905204505 13 288 6.4 25.7 0.00 0.25 0.25 88 1019.2
20260905203003 13 263 1.6 6.4 0.00 0.25 0.25 89 1018.9
20260905201501 13 270 1.6 11.3 0.00 0.25 0.25 89 1018.8
20260905200105 13 297 1.6 8.0 0.00 0.25 0.25 89 1018.7
20260905194549 13 249 1.6 11.3 0.00 0.25 0.25 89 1018.5
20260905193009 13 240 1.6 11.3 0.00 0.25 0.25 89 1018.3
20260905191508 13 242 3.2 12.9 0.00 0.25 0.25 89 1018.2
20260905190012 14 225 1.6 8.0 0.00 0.25 0.25 88 1018.0
20260905184506 14 314 3.2 17.7 0.00 0.38 0.25 90 1017.8
20260905183002 14 264 1.6 12.9 0.00 0.38 0.25 91 1017.7
20260905181600 14 270 1.6 8.0 0.00 0.38 0.25 91 1017.4
20260905180113 15 236 3.2 11.3 0.00 0.38 0.25 92 1017.2
20260905174556 14 263 3.2 14.5 0.00 0.76 0.25 91 1017.0
20260905173113 15 231 3.2 12.9 0.03 0.76 0.25 91 1016.8
20260905171556 15 271 4.8 11.3 0.18 0.76 0.25 90 1016.7
20260905170051 15 235 1.6 11.3 0.25 0.76 0.25 90 1016.5
20260905164555 15 271 3.2 16.1 0.25 0.76 0.25 89 1016.4
20260905163050 15 279 1.6 12.9 0.23 0.71 0.23 87 1016.4
20260905161549 16 344 12.9 35.4 0.05 0.56 0.05 77 1016.4
20260905160055 18 277 8.0 33.8 0.00 0.51 0.00 63 1015.4
20260905154550 19 257 12.9 33.8 0.00 0.69 0.00 61 1015.2
20260905153043 19 242 11.3 29.0 0.00 0.69 0.00 62 1015.1
20260905151542 19 206 11.3 37.0 0.00 0.69 0.00 61 1014.9
20260905150043 20 219 11.3 37.0 0.00 0.69 0.00 58 1014.6
20260905144539 19 215 9.7 32.2 0.00 0.69 0.00 61 1014.5
20260905143040 18 309 12.9 32.2 0.00 0.69 0.00 65 1014.4
20260905141537 20 279 9.7 19.3 0.00 0.69 0.00 56 1014.0
20260905140036 20 275 16.1 38.6 0.00 0.69 0.00 54 1014.0
20260905134535 20 266 12.9 27.4 0.00 0.69 0.00 55 1014.0
20260905133037 19 277 8.0 33.8 0.00 0.69 0.00 58 1014.2
20260905131534 19 322 17.7 32.2 0.00 0.69 0.00 55 1014.4
20260905130032 20 193 12.9 32.2 0.00 0.69 0.00 52 1014.1
20260905124532 20 252 12.9 38.6 0.00 0.69 0.00 52 1013.9
20260905123033 20 311 16.1 33.8 0.00 0.69 0.00 52 1014.0
20260905121530 20 355 12.9 35.4 0.00 0.69 0.00 53 1013.8
20260905120037 20 240 11.3 29.0 0.00 0.69 0.00 58 1014.0
20260905114527 18 279 9.7 29.0 0.00 0.69 0.00 64 1014.0
20260905113029 17 287 12.9 29.0 0.00 0.69 0.00 69 1014.1
20260905111546 19 284 11.3 29.0 0.00 0.69 0.00 59 1014.0
20260905110025 19 341 11.3 32.2 0.00 0.69 0.00 60 1014.0
20260905104524 19 297 6.4 35.4 0.00 0.69 0.00 60 1014.0
20260905103028 20 244 6.4 38.6 0.00 0.69 0.00 61 1014.0
20260905101521 18 296 11.3 25.7 0.00 0.69 0.00 62 1014.1
20260905100021 19 252 8.0 24.1 0.00 0.69 0.00 63 1014.0
20260905094520 18 280 14.5 30.6 0.00 0.69 0.00 61 1014.1
20260905093020 19 242 8.0 30.6 0.00 0.69 0.00 61 1014.2
20260905091616 19 261 14.5 35.4 0.00 0.69 0.00 63 1014.1
20260905090014 18 257 9.7 25.7 0.00 0.69 0.00 66 1014.0
20260905084512 18 318 3.2 27.4 0.00 0.69 0.00 67 1014.0
20260905083010 18 288 11.3 22.5 0.00 0.69 0.00 67 1014.1
20260905081507 18 267 4.8 29.0 0.00 0.69 0.00 69 1013.9
20260905080003 17 188 6.4 20.9 0.00 0.69 0.00 72 1013.6
20260905074502 17 334 11.3 30.6 0.00 0.69 0.00 73 1013.6
20260905073103 17 101 6.4 27.4 0.00 0.69 0.00 74 1013.5
20260905071558 17 250 8.0 20.9 0.00 0.69 0.00 75 1013.3
20260905070058 17 304 4.8 30.6 0.00 0.69 0.00 77 1013.2
20260905064609 16 220 6.4 17.7 0.00 0.69 0.00 80 1013.0
20260905063050 16 259 12.9 22.5 0.00 0.69 0.00 81 1013.2
20260905061547 15 243 3.2 16.1 0.00 0.69 0.00 82 1012.9
20260905060045 15 228 3.2 20.9 0.00 0.69 0.00 84 1012.7
20260905054549 15 246 9.7 24.1 0.00 0.69 0.00 84 1012.7
20260905053042 15 245 9.7 19.3 0.00 0.69 0.00 85 1012.6
20260905051545 14 217 4.8 17.7 0.00 0.69 0.00 85 1012.4
20260905050040 14 246 1.6 20.9 0.00 0.69 0.00 86 1012.2
20260905044538 14 225 4.8 17.7 0.00 0.69 0.00 86 1012.2
20260905043035 14 284 3.2 17.7 0.00 0.69 0.00 85 1012.0
20260905041532 14 263 1.6 16.1 0.00 0.69 0.00 85 1011.9
20260905040034 14 284 8.0 19.3 0.00 0.69 0.00 85 1011.7
20260905034531 14 249 3.2 11.3 0.00 0.69 0.00 85 1011.7
20260905033028 14 284 3.2 19.3 0.00 0.69 0.00 86 1011.4
20260905031523 14 232 1.6 19.3 0.00 0.69 0.00 86 1011.4
20260905030021 14 237 6.4 16.1 0.00 0.69 0.00 86 1011.1
20260905024518 15 293 4.8 17.7 0.00 0.69 0.00 86 1010.9
20260905023016 15 240 4.8 17.7 0.00 0.69 0.00 86 1010.9
20260905021532 15 274 0.0 12.9 0.00 0.69 0.00 85 1010.9
20260905020016 15 261 1.6 12.9 0.00 0.69 0.00 85 1010.6
20260905014509 15 265 3.2 14.5 0.00 0.69 0.00 85 1010.4
20260905013007 15 292 6.4 19.3 0.00 0.69 0.00 85 1010.5
20260905011506 16 234 6.4 17.7 0.00 0.69 0.00 85 1010.3
20260905010005 16 235 4.8 16.1 0.00 0.69 0.00 85 1010.3
20260905004502 16 254 3.2 14.5 0.00 0.69 0.00 84 1010.2
20260905003004 16 236 4.8 14.5 0.00 0.69 0.00 85 1010.1
20260905001608 16 230 4.8 16.1 0.00 0.69 0.00 85 1010.1
20260904234605 16 240 3.2 16.1 0.00 0.69 0.00 86 1009.8
20260904233056 16 213 3.2 16.1 0.00 0.69 0.00 86 1009.8
20260904231553 16 209 1.6 22.5 0.00 0.69 0.00 86 1009.5